Regional Weather Roundup
Issued by NWS

Home | Current Version | Previous Version | Graphics & Text | Print | Product List | Glossary On
Versions: 1 2 3 4 5 6 7 8 9 10 11 12 13 14 15 16 17 18 19 20 21 22 23 24 25 26 27 28 29 30 31 32 33 34 35 36 37 38 39 40 41 42 43 44 45 46 47 48 49 50
167
ASUS43 KMKX 231310
RWRWI

WISCONSIN REGIONAL WEATHER ROUNDUP
NATIONAL WEATHER SERVICE MILWAUKEE/SULLIVAN WI
800 AM CDT MON APR 23 2018

NOTE: "FAIR" INDICATES FEW OR NO CLOUDS BELOW 12,000 FEET WITH NO
SIGNIFICANT WEATHER AND/OR OBSTRUCTIONS TO VISIBILITY.

WIZ001-002-006>008-014>016-023>028-231400-
NORTHWEST WISCONSIN

CITY           SKY/WX    TMP DP  RH WIND       PRES   REMARKS
SUPERIOR ARPT  FAIR      39  32  77 CALM      30.24S
ASHLAND        FAIR      45  26  47 SW6       30.26R
HAYWARD        FAIR      38  32  79 CALM      30.26S
SIREN          FAIR      44  32  63 CALM      30.25F
CUMBERLAND     FAIR      34  30  86 CALM      30.27S
RICE LAKE      FAIR      37  31  77 CALM      30.30R
CHETEK         FAIR      39  27  62 CALM      30.28S
LADYSMITH      FAIR      41  28  61 E3        30.30S
EAU CLAIRE     FAIR      42  28  57 CALM      30.28R
MENOMONIE      FAIR      38  33  80 CALM      30.28S
NEW RICHMOND   FAIR      41  33  72 CALM      30.27S
OSCEOLA        FAIR      37  33  86 CALM      30.30S
$$

WIZ003>005-009-010-017-018-231400-
NORTH CENTRAL WISCONSIN

CITY           SKY/WX    TMP DP  RH WIND       PRES   REMARKS
MANITOWISH WTR FAIR      37  23  55 CALM      30.28R
ARBOR VITAE    FAIR      39  26  58 S5        30.28S
WOODRUFF       FAIR      39  26  58 S5        30.28S
RHINELANDER    FAIR      38  26  62 CALM      30.30R
EAGLE RIVER    FAIR      32  24  72 CALM      30.29R
LAND O LAKES   FAIR      38  22  53 CALM      30.30S
PHILLIPS       FAIR      37  30  74 CALM      30.28R
TOMAHAWK       FAIR      33  24  68 CALM      30.30S
MEDFORD        FAIR      41  29  63 S3        30.28F
MERRILL          N/A     34  26  71 CALM      30.31S
$$

WIZ029-030-035-036-043>047-231400-
CENTRAL WISCONSIN

CITY           SKY/WX    TMP DP  RH WIND       PRES   REMARKS
WAUSAU         FAIR      39  30  70 CALM      30.28S
MOSINEE        MOSUNNY   43  27  52 CALM      30.31R
MARSHFIELD     FAIR      42  28  57 E3        30.28S
STEVENS POINT  FAIR      37  30  75 CALM      30.30S
WAUPACA        FAIR      37  29  74 CALM      30.31R
WAUTOMA        FAIR      39  35  86 CALM      30.30S
WISC RAPIDS    FAIR      43  28  55 CALM      30.31R
CAMP DOUGLAS   FAIR      37  33  86 CALM      30.29R
$$

WIZ011>013-019>022-031-037>040-048>050-231400-
NORTHEAST WISCONSIN

CITY           SKY/WX    TMP DP  RH WIND       PRES   REMARKS
ANTIGO         FAIR      41  32  71 CALM      30.30S
SHAWANO        FAIR      36  29  75 CALM      30.31S
OCONTO         FAIR      38  32  79 CALM      30.31S
STURGEON BAY   FAIR      45  29  53 S6        30.32S
GREEN BAY      FAIR      40  29  64 N3        30.31R
MANITOWOC      FAIR      40  32  73 CALM      30.31F
APPLETON       PTSUNNY   41  18  38 CALM      30.29
CLINTONVILLE   FAIR      34  27  75 CALM      30.31R
OSHKOSH        FAIR      44  31  60 CALM      30.29S
$$

WIZ032>034-041-042-053>061-231400-
SOUTHWEST WISCONSIN

CITY           SKY/WX    TMP DP  RH WIND       PRES   REMARKS
LA CROSSE      FAIR      43  32  65 CALM      30.28S
SPARTA         FAIR      37  31  77 CALM      30.30S
VIROQUA        FAIR      47  31  51 E8        30.27S
BOSCOBEL       FAIR      43  33  68 VRB3      30.28S
PRAIRIE DU CHI FAIR      42  33  70 CALM      30.27S
PLATTEVILLE    FAIR      44  29  55 E8        30.25S
$$

WIZ056-057-062-063-064-067-068-231400-
SOUTH CENTRAL WISCONSIN

CITY           SKY/WX    TMP DP  RH WIND       PRES   REMARKS
REEDSBURG      FAIR      38  33  81 CALM      30.29S
BARABOO/DELLS  FAIR      37  32  81 CALM      30.28S
LONE ROCK      FAIR      35  32  88 CALM      30.29R
MINERAL POINT  FAIR      46  27  46 NE6       30.25S
MADISON        PTSUNNY   40  30  67 N3        30.27S
MIDDLETON      FAIR      45  29  53 E3        30.28S
WATERTOWN      FAIR      42  29  60 CALM      30.27S
MONROE         FAIR      45  27  49 NE6       30.24F
JANESVILLE     MOSUNNY   46  28  49 NE6       30.24F
$$

WIZ051-052-058>065-066-070>072-231400-
SOUTHEAST WISCONSIN

CITY           SKY/WX    TMP DP  RH WIND       PRES   REMARKS
MILWAUKEE      PTSUNNY   45  33  63 N7        30.27F
WAUKESHA       SUNNY     41  27  56 NE5       30.28S
MILWAUKEE/TIMM SUNNY     41  27  56 NE5       30.29S
RACINE         FAIR      47  33  58 NE9       30.27S
BURLINGTON     FAIR      44  31  60 NE5       30.25F
KENOSHA        FAIR      48  33  56 NE10      30.25S
FOND DU LAC    FAIR      42  32  67 CALM      30.28F
SHEBOYGAN      FAIR      43  34  70 CALM      30.29F
WEST BEND      FAIR      36  32  87 CALM      30.28F
JUNEAU         FAIR      39  28  65 CALM      30.29S
$$

LSZ147-162-231400-
LAKE SUPERIOR

STATION/POSITION TIME  TEMP    WIND        PRES    WAVE
                       AIR SEA DIR/SP/G            HT/PER
                 (UTC) (F)     (DEG/KT/KT) (MB)    (FT/S)
DEVILS ISLAND    1300   42     210/  7/  8 1024.3F
SAXON HARBOR     1240   49     200/  9/ 11 1023.7R
$$

LMZ867-665-643>646-231400-
LAKE MICHIGAN

STATION/POSITION TIME  TEMP    WIND        PRES    WAVE
                       AIR SEA DIR/SP/G            HT/PER
                 (UTC) (F)     (DEG/KT/KT) (MB)    (FT/S)
NORTHPORT PIER   1230   38                 1026.4S
KEWAUNEE LAKESHO 1242   39      CALM  /  1 1025.7R
SHEBOYGAN LAKESH 1300   41      10/  7/  8 1026.2F
PORT WASHINGTON  1230   43     310/  2/  3 1026.4F
MILWAUKEE LAKESH 1250   45      10/  6/  7   N/A
KENOSHA   LAKESH 1300   42                 1024.4
$$

TC  - TEMPERATURE IN CELSIUS
VSB - VISIBILITY IN STATUTE MILES
WCI - WIND CHILL INDEX
HX  - HEAT INDEX





USA.gov is the U.S. government's official web portal to all federal, state and local government web resources and services.